This demonstration page uses our WeatherBlox Daily Observations layout. Learn more.

Left ArrowRight Arrow

Hourly Observations for October 2, 2020

Temp ( °F °C ) Dew Point ( °F °C ) Humidity (%) Winds ( mph kmh ) Pressure ( in mb ) Visibility ( mi km ) Precip ( " mm )
12:15 am 00:15 Clear 45 7 45 7 100 100 WNW 5 7 30.15 1021 10 16 N/A
12:35 am 00:35 Clear 41 5 41 5 100 100 W 5 7 30.16 1021 10 16 N/A
12:55 am 00:55 Clear 39 4 39 4 100 100 W 5 7 30.15 1021 10 16 N/A
1:15 am 01:15 Clear 39 4 39 4 100 100 W 6 9 30.15 1021 10 16 N/A
1:35 am 01:35 Clear 41 5 41 5 100 100 W 6 9 30.15 1021 10 16 N/A
1:55 am 01:55 Clear 43 6 43 6 100 100 WNW 6 9 30.14 1021 10 16 N/A
2:15 am 02:15 Clear 41 5 41 5 100 100 W 3 6 30.15 1021 10 16 N/A
2:35 am 02:35 Clear 39 4 39 4 100 100 N N/A 30.15 1021 10 16 N/A
2:55 am 02:55 Clear 39 4 39 4 100 100 N N/A 30.15 1021 10 16 N/A
3:15 am 03:15 Clear 41 5 41 5 100 100 N N/A 30.15 1021 10 16 N/A
3:35 am 03:35 Clear 37 3 37 3 100 100 N N/A 30.15 1021 10 16 N/A
3:55 am 03:55 Clear 39 4 39 4 100 100 WSW 3 6 30.15 1021 10 16 N/A
4:15 am 04:15 Clear 37 3 37 3 100 100 SW 5 7 30.15 1021 10 16 N/A
4:35 am 04:35 Clear 37 3 37 3 100 100 W 3 6 30.15 1021 10 16 N/A
4:55 am 04:55 Clear 37 3 37 3 100 100 N N/A 30.15 1021 10 16 N/A
5:15 am 05:15 Clear 37 3 37 3 100 100 N N/A 30.15 1021 10 16 N/A
5:35 am 05:35 Clear 37 3 37 3 100 100 N N/A 30.15 1021 7 11 N/A
5:55 am 05:55 Mostly Cloudy 36 2 36 2 100 100 N N/A 30.16 1021 1 1 N/A
6:15 am 06:15 Mostly Cloudy 37 3 37 3 100 100 N N/A 30.16 1021 1 1 N/A
6:35 am 06:35 Mostly Cloudy 36 2 36 2 100 100 N N/A 30.17 1022 1 1 N/A
6:55 am 06:55 Mostly Cloudy 34 1 34 1 100 100 N N/A 30.18 1022 1 1 N/A
7:15 am 07:15 Clear 36 2 36 2 100 100 N N/A 30.18 1022 5 8 N/A
7:35 am 07:35 Clear 36 2 36 2 100 100 N N/A 30.18 1022 5 8 N/A
7:55 am 07:55 Sunny 37 3 37 3 100 100 N N/A 30.18 1022 3 4 N/A
8:15 am 08:15 Mostly Cloudy 36 2 36 2 100 100 N N/A 30.20 1023 1 1 N/A
8:35 am 08:35 Mostly Cloudy 36 2 36 2 100 100 N N/A 30.20 1023 1 1 N/A
8:55 am 08:55 Sunny 39 4 39 4 100 100 N N/A 30.20 1023 7 11 N/A
9:15 am 09:15 Sunny 43 6 43 6 100 100 N N/A 30.19 1022 10 16 N/A
9:35 am 09:35 Sunny 45 7 45 7 100 100 N N/A 30.20 1023 10 16 N/A
9:55 am 09:55 Sunny 46 8 46 8 100 100 W 3 6 30.21 1023 10 16 N/A
10:15 am 10:15 Sunny 48 9 48 9 100 100 N N/A 30.20 1023 10 16 N/A
10:35 am 10:35 Partly Cloudy 50 10 48 9 94 94 W 3 6 30.21 1023 10 16 N/A
10:55 am 10:55 Partly Cloudy 52 11 50 10 94 94 NNW 6 9 30.21 1023 10 16 N/A
11:15 am 11:15 Partly Cloudy 54 12 48 9 82 82 WNW 6 9 30.20 1023 10 16 N/A
11:35 am 11:35 Partly Cloudy 54 12 48 9 82 82 NW 5 7 30.19 1022 10 16 N/A
11:55 am 11:55 Partly Cloudy 55 13 46 8 72 72 NNW 6 9 30.19 1022 10 16 N/A
12:15 pm 12:15 Mostly Cloudy 55 13 45 7 67 67 W 9 15 30.19 1022 10 16 N/A
12:35 pm 12:35 Mostly Cloudy 57 14 45 7 63 63 WNW 9 15 30.19 1022 10 16 N/A
12:55 pm 12:55 Partly Cloudy 57 14 45 7 63 63 W 10 17 30.19 1022 10 16 N/A
1:15 pm 13:15 Partly Cloudy 59 15 45 7 59 59 WNW 9 15 30.18 1022 10 16 N/A
1:35 pm 13:35 Mostly Cloudy 61 16 43 6 52 52 W 10 17 30.17 1022 10 16 N/A
1:55 pm 13:55 Mostly Cloudy 59 15 43 6 55 55 NNW 7 11 30.17 1022 10 16 N/A
2:15 pm 14:15 Cloudy 57 14 43 6 59 59 WNW 6 9 30.17 1022 10 16 N/A
2:35 pm 14:35 Cloudy 59 15 45 7 59 59 NW 9 15 30.16 1021 10 16 N/A
2:55 pm 14:55 Cloudy 59 15 43 6 55 55 W 8 13 30.15 1021 10 16 N/A
3:15 pm 15:15 Cloudy 59 15 45 7 59 59 NW 9 15 30.15 1021 10 16 N/A
3:35 pm 15:35 Cloudy 59 15 43 6 55 55 WNW 12 19 30.14 1021 10 16 N/A
3:55 pm 15:55 Mostly Cloudy 59 15 43 6 55 55 WNW 9 15 30.13 1020 10 16 N/A
4:15 pm 16:15 Mostly Cloudy 59 15 43 6 55 55 NW 10 17 30.13 1020 10 16 N/A
4:35 pm 16:35 Cloudy 61 16 43 6 52 52 W 10 17 30.13 1020 10 16 N/A
4:55 pm 16:55 Cloudy 61 16 43 6 52 52 WNW 10 17 30.13 1020 10 16 N/A
5:15 pm 17:15 Cloudy 59 15 43 6 55 55 NW 9 15 30.13 1020 10 16 N/A
5:35 pm 17:35 Cloudy 57 14 41 5 55 55 WNW 8 13 30.14 1021 10 16 N/A
5:55 pm 17:55 Cloudy 59 15 43 6 55 55 NNW 9 15 30.14 1021 10 16 N/A
6:15 pm 18:15 Cloudy 57 14 45 7 63 63 NW 6 9 30.16 1021 10 16 N/A
6:35 pm 18:35 Cloudy 57 14 43 6 59 59 NW 5 7 30.15 1021 10 16 N/A
6:55 pm 18:55 Cloudy 55 13 43 6 63 63 NW 5 7 30.16 1021 10 16 N/A
7:15 pm 19:15 Cloudy 55 13 45 7 67 67 N N/A 30.15 1021 10 16 N/A
7:35 pm 19:35 Cloudy 54 12 43 6 67 67 N N/A 30.16 1021 10 16 N/A
7:55 pm 19:55 Cloudy 54 12 45 7 72 72 N N/A 30.16 1021 10 16 N/A
8:15 pm 20:15 Cloudy 50 10 45 7 82 82 N N/A 30.18 1022 10 16 N/A
8:35 pm 20:35 Cloudy 52 11 45 7 77 77 N N/A 30.18 1022 10 16 N/A
8:55 pm 20:55 Cloudy 50 10 45 7 82 82 N N/A 30.18 1022 10 16 N/A
9:15 pm 21:15 Cloudy 50 10 46 8 88 88 N N/A 30.18 1022 7 11 N/A
9:35 pm 21:35 Cloudy 50 10 45 7 82 82 N N/A 30.18 1022 10 16 N/A
9:55 pm 21:55 Cloudy 50 10 45 7 82 82 N N/A 30.19 1022 10 16 N/A
10:15 pm 22:15 Cloudy 48 9 46 8 94 94 N N/A 30.19 1022 7 11 N/A
10:35 pm 22:35 Cloudy 50 10 45 7 82 82 N N/A 30.19 1022 10 16 N/A
10:55 pm 22:55 Cloudy 50 10 43 6 76 76 NNE 12 19 30.20 1023 10 16 N/A
11:15 pm 23:15 Cloudy 48 9 43 6 82 82 NNE 8 13 30.20 1023 10 16 N/A
11:35 pm 23:35 Cloudy 48 9 41 5 76 76 NNE 9 15 30.21 1023 10 16 N/A
11:55 pm 23:55 Cloudy 46 8 41 5 82 82 NNE 8 13 30.22 1023 10 16 N/A

Powered by AerisWeather